When you browse on this site, cookies collect data to enhance your experience and personalize the content and advertising you see.
Visit our Privacy Policy to learn more. By continuing to use the site, you agree to this use of cookies and data.
  • Em Portugal
  • Lista de países
  • Para 7 dias
  • Temperatura da água
  • Mapas de satélite
  • Mapa do tempo
  • Widgets de tempo
  • user-avatar
    Iniciar Sessão

    Previsão horária em Rudno

    Hoje, 27 Março, Quarta-feira

    Tempo Temperatura Precipitação Vento Pressão Humidade
    00:00 +2°C° 0 mm 1 m/s 762 mmHg 84%
    01:00 +1°C° 0 mm 2 m/s 763 mmHg 85%
    02:00 -1°C° 0 mm 2 m/s 763 mmHg 87%
    03:00 -1°C° 0 mm 2 m/s 763 mmHg 88%
    04:00 -1°C° 0 mm 2 m/s 763 mmHg 90%
    05:00 0°C° 0 mm 3 m/s 763 mmHg 84%
    06:00 0°C° 0 mm 3 m/s 763 mmHg 79%
    07:00 +1°C° 0 mm 3 m/s 764 mmHg 73%
    08:00 +2°C° 0 mm 3 m/s 764 mmHg 74%
    09:00 +4°C° 0 mm 4 m/s 764 mmHg 75%
    10:00 +5°C° 0 mm 4 m/s 764 mmHg 75%
    11:00 +5°C° 0.1 mm 4 m/s 764 mmHg 77%
    12:00 +6°C° 0.1 mm 4 m/s 764 mmHg 78%
    13:00 +6°C° 0.1 mm 4 m/s 764 mmHg 79%
    14:00 +6°C° 0.2 mm 4 m/s 764 mmHg 82%
    15:00 +6°C° 0.2 mm 4 m/s 764 mmHg 84%
    16:00 +7°C° 0.2 mm 3 m/s 763 mmHg 86%
    17:00 +7°C° 0.1 mm 3 m/s 763 mmHg 89%
    18:00 +5°C° 0.1 mm 3 m/s 763 mmHg 91%
    19:00 +5°C° 0.1 mm 3 m/s 764 mmHg 94%
    20:00 +5°C° 0.1 mm 3 m/s 764 mmHg 95%
    21:00 +5°C° 0.1 mm 3 m/s 764 mmHg 96%
    22:00 +5°C° 0.1 mm 3 m/s 764 mmHg 96%
    23:00 +6°C° 0.1 mm 2 m/s 764 mmHg 97%

    Amanhã, 28 Março, Quinta-feira

    Tempo Temperatura Precipitação Vento Pressão Humidade
    00:00 +6°C° 0.1 mm 2 m/s 764 mmHg 97%
    01:00 +6°C° 0.1 mm 2 m/s 764 mmHg 98%
    02:00 +5°C° 0 mm 2 m/s 765 mmHg 98%
    03:00 +5°C° 0 mm 2 m/s 765 mmHg 98%
    04:00 +5°C° 0 mm 2 m/s 765 mmHg 98%
    05:00 +6°C° 0 mm 1 m/s 766 mmHg 97%
    06:00 +6°C° 0 mm 1 m/s 766 mmHg 96%
    07:00 +6°C° 0 mm 1 m/s 766 mmHg 95%
    08:00 +8°C° 0 mm 1 m/s 767 mmHg 87%
    09:00 +9°C° 0 mm 1 m/s 767 mmHg 79%
    10:00 +11°C° 0 mm 1 m/s 768 mmHg 71%
    11:00 +12°C° 0 mm 1 m/s 768 mmHg 67%
    12:00 +13°C° 0 mm 1 m/s 768 mmHg 62%
    13:00 +14°C° 0 mm 2 m/s 768 mmHg 58%
    14:00 +14°C° 0 mm 2 m/s 768 mmHg 59%
    15:00 +13°C° 0 mm 2 m/s 768 mmHg 60%
    16:00 +13°C° 0 mm 2 m/s 768 mmHg 61%
    17:00 +12°C° 0 mm 2 m/s 768 mmHg 69%
    18:00 +9°C° 0 mm 2 m/s 768 mmHg 77%
    19:00 +7°C° 0 mm 2 m/s 768 mmHg 85%
    20:00 +7°C° 0 mm 2 m/s 768 mmHg 88%
    21:00 +6°C° 0 mm 2 m/s 769 mmHg 90%
    22:00 +6°C° 0 mm 2 m/s 769 mmHg 93%
    23:00 +6°C° 0 mm 2 m/s 769 mmHg 94%

    Depois de amanhã, 29 Março, Sexta-feira

    Tempo Temperatura Precipitação Vento Pressão Humidade
    00:00 +6°C° 0 mm 2 m/s 769 mmHg 95%
    01:00 +6°C° 0 mm 2 m/s 769 mmHg 96%
    02:00 +6°C° 0 mm 2 m/s 769 mmHg 97%
    03:00 +5°C° 0 mm 2 m/s 769 mmHg 97%
    04:00 +4°C° 0 mm 3 m/s 768 mmHg 97%
    05:00 +5°C° 0 mm 3 m/s 768 mmHg 97%
    06:00 +5°C° 0 mm 3 m/s 768 mmHg 96%
    07:00 +5°C° 0 mm 3 m/s 768 mmHg 96%
    08:00 +8°C° 0 mm 3 m/s 768 mmHg 90%
    09:00 +10°C° 0 mm 3 m/s 768 mmHg 83%
    10:00 +11°C° 0 mm 4 m/s 768 mmHg 77%
    11:00 +12°C° 0 mm 4 m/s 768 mmHg 71%
    12:00 +13°C° 0 mm 4 m/s 768 mmHg 65%
    13:00 +14°C° 0 mm 5 m/s 768 mmHg 59%
    14:00 +14°C° 0 mm 4 m/s 767 mmHg 60%
    15:00 +14°C° 0 mm 4 m/s 767 mmHg 61%
    16:00 +14°C° 0 mm 4 m/s 767 mmHg 61%
    17:00 +12°C° 0 mm 4 m/s 766 mmHg 69%
    18:00 +11°C° 0 mm 3 m/s 766 mmHg 76%
    19:00 +10°C° 0 mm 2 m/s 766 mmHg 84%
    20:00 +9°C° 0 mm 2 m/s 766 mmHg 86%
    21:00 +9°C° 0 mm 2 m/s 766 mmHg 88%
    22:00 +9°C° 0 mm 3 m/s 766 mmHg 90%
    23:00 +8°C° 0 mm 3 m/s 766 mmHg 91%

    30 Março, Sábado

    Tempo Temperatura Precipitação Vento Pressão Humidade
    00:00 +8°C° 0 mm 3 m/s 765 mmHg 91%
    01:00 +8°C° 0 mm 3 m/s 765 mmHg 92%
    02:00 +8°C° 0 mm 3 m/s 765 mmHg 93%
    03:00 +7°C° 0 mm 3 m/s 765 mmHg 94%
    04:00 +7°C° 0 mm 3 m/s 764 mmHg 95%
    05:00 +7°C° 0 mm 3 m/s 764 mmHg 94%
    06:00 +7°C° 0 mm 3 m/s 764 mmHg 93%
    07:00 +8°C° 0 mm 3 m/s 764 mmHg 92%
    08:00 +8°C° 0 mm 4 m/s 764 mmHg 84%
    09:00 +11°C° 0 mm 4 m/s 764 mmHg 76%
    10:00 +13°C° 0 mm 4 m/s 764 mmHg 68%
    11:00 +14°C° 0 mm 4 m/s 763 mmHg 66%
    12:00 +15°C° 0 mm 4 m/s 763 mmHg 63%
    13:00 +17°C° 0 mm 4 m/s 762 mmHg 60%
    14:00 +15°C° 0 mm 4 m/s 761 mmHg 60%
    15:00 +15°C° 0 mm 4 m/s 761 mmHg 61%
    16:00 +16°C° 0 mm 3 m/s 760 mmHg 61%
    17:00 +14°C° 0 mm 3 m/s 760 mmHg 66%
    18:00 +13°C° 0 mm 3 m/s 759 mmHg 72%
    19:00 +12°C° 0 mm 2 m/s 759 mmHg 77%
    20:00 +12°C° 0 mm 2 m/s 759 mmHg 79%
    21:00 +10°C° 0 mm 3 m/s 758 mmHg 80%
    22:00 +10°C° 0 mm 3 m/s 758 mmHg 82%
    23:00 +9°C° 0 mm 3 m/s 758 mmHg 82%

    31 Março, Domingo

    Tempo Temperatura Precipitação Vento Pressão Humidade
    00:00 +9°C° 0 mm 3 m/s 757 mmHg 82%
    01:00 +9°C° 0 mm 3 m/s 757 mmHg 83%
    02:00 +9°C° 0.1 mm 3 m/s 756 mmHg 84%
    03:00 +7°C° 0.1 mm 4 m/s 756 mmHg 85%
    04:00 +7°C° 0.1 mm 4 m/s 755 mmHg 87%
    05:00 +7°C° 0.1 mm 4 m/s 755 mmHg 87%
    06:00 +8°C° 0.1 mm 4 m/s 755 mmHg 87%
    07:00 +8°C° 0.1 mm 5 m/s 755 mmHg 87%
    08:00 +8°C° 0 mm 5 m/s 755 mmHg 83%
    09:00 +8°C° 0 mm 6 m/s 755 mmHg 78%
    10:00 +8°C° 0 mm 7 m/s 755 mmHg 74%
    11:00 +8°C° 0.1 mm 7 m/s 756 mmHg 69%
    12:00 +8°C° 0.1 mm 7 m/s 756 mmHg 63%
    13:00 +8°C° 0.1 mm 7 m/s 756 mmHg 58%
    14:00 +6°C° 0 mm 7 m/s 757 mmHg 60%
    15:00 +5°C° 0 mm 7 m/s 757 mmHg 61%
    16:00 +4°C° 0 mm 7 m/s 758 mmHg 63%
    17:00 +3°C° 0.1 mm 7 m/s 758 mmHg 67%
    18:00 +2°C° 0.1 mm 6 m/s 759 mmHg 71%
    19:00 +1°C° 0.1 mm 6 m/s 760 mmHg 75%
    20:00 +1°C° 0 mm 5 m/s 761 mmHg 73%
    21:00 0°C° 0 mm 4 m/s 761 mmHg 72%
    22:00 +1°C° 0 mm 3 m/s 762 mmHg 71%
    23:00 0°C° 0 mm 3 m/s 762 mmHg 72%

    1 Abril, Segunda-feira

    Tempo Temperatura Precipitação Vento Pressão Humidade
    00:00 +1°C° 0 mm 2 m/s 762 mmHg 74%
    01:00 +1°C° 0 mm 2 m/s 763 mmHg 75%
    02:00 -1°C° 0 mm 2 m/s 763 mmHg 76%
    03:00 -1°C° 0 mm 2 m/s 763 mmHg 77%
    04:00 -1°C° 0 mm 2 m/s 764 mmHg 77%
    05:00 +1°C° 0 mm 2 m/s 764 mmHg 74%
    06:00 +1°C° 0 mm 2 m/s 764 mmHg 71%
    07:00 +1°C° 0 mm 3 m/s 765 mmHg 67%
    08:00 +2°C° 0 mm 3 m/s 765 mmHg 61%
    09:00 +3°C° 0 mm 3 m/s 766 mmHg 55%
    10:00 +4°C° 0 mm 3 m/s 766 mmHg 48%
    11:00 +5°C° 0 mm 3 m/s 766 mmHg 46%
    12:00 +5°C° 0 mm 3 m/s 766 mmHg 44%
    13:00 +7°C° 0 mm 3 m/s 765 mmHg 42%
    14:00 +5°C° 0 mm 3 m/s 765 mmHg 43%
    15:00 +5°C° 0 mm 3 m/s 765 mmHg 44%
    16:00 +5°C° 0 mm 3 m/s 764 mmHg 45%
    17:00 +4°C° 0 mm 3 m/s 764 mmHg 50%
    18:00 +3°C° 0 mm 2 m/s 764 mmHg 56%
    19:00 +2°C° 0 mm 2 m/s 764 mmHg 62%
    20:00 +2°C° 0 mm 1 m/s 763 mmHg 64%
    21:00 +2°C° 0 mm 1 m/s 763 mmHg 66%
    22:00 +1°C° 0 mm 1 m/s 763 mmHg 67%
    23:00 +1°C° 0 mm 1 m/s 763 mmHg 68%
    Mostrar mais